Location: Cudham
(51.3000°N, 0.0667°E)
Time: 20:05:07
(UTC+00:00)

USA 186 - Pass Details

Date: 19 May 2025
Orbit: 338 x 359 km, 97.0° (Epoch: 19 May)

Event Time Altitude Azimuth Distance (km) Brightness Sun altitude
Rises 20:34:38 0° 201° (SSW) 2,118 5.1 -6.2°
Reaches altitude 10° 20:36:58 10° 223° (SW) 1,287 4.2 -6.5°
Maximum altitude 20:38:50 17° 267° (W) 975 4.2 -6.7°
Drops below altitude 10° 20:40:45 10° 310° (NW) 1,299 6.1 -6.9°
Sets 20:43:07 0° 333° (NNW) 2,150 7.0 -7.2°
